Weather History for KBML - December, 2000

Change the Weather History Date:

Saturday, December 2, 2000

  Actual Average Record
Temperature  
Mean Temperature 18 °F -  
Max Temperature 21 °F 33 °F 50 °F (2012)
Min Temperature 15 °F 17 °F -4 °F (2002)
Degree Days  
Heating Degree Days 47    
Moisture  
Dew Point 8 °F    
Average Humidity 67    
Maximum Humidity 77    
Minimum Humidity 54    
Precipitation  
Precipitation 0.00 in - - ()
Sea Level Pressure  
Sea Level Pressure 30.36 in    
Wind  
Wind Speed 9 mph (NW)    
Max Wind Speed 14 mph    
Max Gust Speed 24 mph    
Visibility 9 miles    
Events Snow    
Averages and records for this station are not official NWS values.
T = Trace of Precipitation, MM = Missing Value Source: NWS Daily Summary

Daily Weather History Graph

Daily Weather History Graph

Search for Another Location

Airport or City:

Trip Planner

Search our weather history database for the weather conditions in past years. The results will help you decide how hot, cold, wet, or windy it might be!

Date:

Astronomy

Dec. 02, 2000 Rise Set
Actual Time 7:02 AM EST 4:05 PM EST
Civil Twilight 6:29 AM EST 4:38 PM EST
Nautical Twilight 5:53 AM EST 5:14 PM EST
Astronomical Twilight 5:18 AM EST 5:50 PM EST
Moon 11:58 AM EST 10:07 PM EST
Length of Visible Light 10h 08m
Length of Day
9h 02m
Waxing Crescent, 36% of the Moon is Illuminated
Dec 2
Waxing Crescent
Dec 3
First Quarter
Dec 11
Full
Dec 17
Last Quarter
Dec 25
New

Hourly Weather History & Observations

Time (EST) Temp. Windchill Dew Point Humidity Pressure Visibility Wind Dir Wind Speed Gust Speed Precip Events Conditions
12:52 AM 18.0 °F 9.8 °F 7.0 °F 62% 30.24 in 10.0 mi WNW 5.8 mph - N/A   Overcast
1:52 AM 17.1 °F 4.3 °F 9.0 °F 71% 30.25 in 10.0 mi West 11.5 mph - N/A   Overcast
2:52 AM 17.1 °F 5.8 °F 6.1 °F 62% 30.27 in 7.0 mi West 9.2 mph - 0.00 in Snow Light Snow
3:52 AM 16.0 °F 3.6 °F 9.0 °F 74% 30.27 in 6.0 mi West 10.4 mph 17.3 mph 0.00 in Snow Light Snow
4:52 AM 16.0 °F 6.3 °F 10.0 °F 77% 30.28 in 3.0 mi Variable 6.9 mph - 0.00 in Snow Light Snow
5:52 AM 16.0 °F 4.4 °F 9.0 °F 74% 30.29 in 8.0 mi West 9.2 mph - 0.00 in Snow Light Snow
6:16 AM 15.8 °F 2.1 °F 8.6 °F 73% 30.22 in 10.0 mi WNW 12.7 mph - 0.00 in   Overcast
6:52 AM 16.0 °F 2.9 °F 9.0 °F 74% 30.30 in 8.0 mi WNW 11.5 mph - 0.00 in Snow Light Snow
7:52 AM 16.0 °F 5.3 °F 9.0 °F 74% 30.33 in 9.0 mi NNW 8.1 mph - 0.00 in   Overcast
8:52 AM 17.1 °F 7.6 °F 10.0 °F 74% 30.36 in 9.0 mi WNW 6.9 mph - 0.00 in Snow Light Snow
9:22 AM 17.6 °F 7.3 °F 10.4 °F 73% 30.29 in 2.5 mi WNW 8.1 mph - 0.00 in Snow Light Snow
9:33 AM 17.6 °F 5.7 °F 8.6 °F 68% 30.30 in 6.0 mi NW 10.4 mph - 0.00 in Snow Light Snow
9:52 AM 18.0 °F 4.8 °F 8.1 °F 65% 30.37 in 10.0 mi NNW 12.7 mph 18.4 mph 0.00 in   Overcast
10:13 AM 19.4 °F 6.0 °F 8.6 °F 63% 30.30 in 10.0 mi NNW 13.8 mph - N/A   Overcast
10:52 AM 19.0 °F 6.1 °F 8.1 °F 62% 30.36 in 10.0 mi NW 12.7 mph - N/A   Overcast
11:52 AM 21.9 °F 10.4 °F 8.1 °F 55% 30.35 in 10.0 mi NW 11.5 mph 19.6 mph N/A   Overcast
12:52 PM 19.9 °F 6.7 °F 7.0 °F 57% 30.35 in 10.0 mi NNW 13.8 mph 24.2 mph N/A   Mostly Cloudy
1:52 PM 19.9 °F 7.3 °F 6.1 °F 55% 30.37 in 10.0 mi NW 12.7 mph 19.6 mph N/A   Overcast
2:52 PM 19.0 °F 5.6 °F 5.0 °F 54% 30.39 in 10.0 mi NNW 13.8 mph - N/A   Overcast
3:52 PM 19.0 °F 8.2 °F 5.0 °F 54% 30.42 in 10.0 mi NW 9.2 mph - N/A   Overcast
4:52 PM 18.0 °F 12.7 °F 10.0 °F 71% 30.44 in 10.0 mi Variable 3.5 mph - 0.00 in   Overcast
5:52 PM 18.0 °F 6.9 °F 9.0 °F 68% 30.46 in 10.0 mi West 9.2 mph - 0.00 in   Overcast
6:52 PM 17.1 °F 8.7 °F 9.0 °F 71% 30.47 in 10.0 mi Variable 5.8 mph - N/A   Overcast
7:52 PM 17.1 °F 10.0 °F 9.0 °F 71% 30.47 in 10.0 mi Variable 4.6 mph - N/A   Overcast
8:52 PM 17.1 °F 7.6 °F 9.0 °F 71% 30.48 in 7.0 mi West 6.9 mph - 0.00 in Snow Light Snow
9:52 PM 17.1 °F 10.0 °F 9.0 °F 71% 30.48 in 10.0 mi Variable 4.6 mph - 0.00 in   Overcast
10:52 PM 16.0 °F 5.3 °F 5.0 °F 62% 30.49 in 10.0 mi NW 8.1 mph - N/A   Overcast
11:52 PM 15.1 °F 6.4 °F 5.0 °F 64% 30.49 in 10.0 mi NW 5.8 mph - N/A   Overcast